Weather in Kirovskoye

Russia / Saratov Oblast     51°33′30″N   47°13′08″E
temp.,
°C
wind,
m/s
gust,
m/s
humid.,
%
clouds,
%
prec.,
mm/h
press.,
hPa
HPBL,
m
8 may, sat
sat801:00+12e226394 0.0 101520
04:00+12sse2358100 0.0 101544
07:00+13sse23616 0.0 1015128
10:00+17s45483 0.0 1015725
13:00+21ssw56400 0.0 10141878
16:00+21sw5539100 0.0 10131967
19:00+19wsw464785 0.0 1013290
22:00+15ssw4652100 0.0 101499
9 may, sun
sun901:00+14s4548100 0.0 101378
04:00+13sse485391 0.0 1012121
07:00+14sse51357100 0.0 1012327
10:00+19s71049100 0.0 1011613
13:00+23s81039100 0.0 10112194
16:00+23s6938100 0.0 10112239
19:00+21sw2447100 0.0 101187
22:00+13nnw6978100 0.0 1013339
10 may, mon
mon1001:00+11n71276100 0.0 1013387
04:00+11n61177100 0.0 1013421
07:00+12nne81181100 0.1 1015379
10:00+14nne101477100 0.1 1014425
13:00+17ne81166100 0.0 1016693
16:00+19nne101162100 0.0 1016640
19:00+15nne91574100 0.3 1017418
22:00+14ne101778100 0.4 1018522
11 may, tue
tue1101:00+14ne81586100 0.5 1019435
04:00+13ne101786100 0.5 1018375
07:00+14ese388488 0.1 1020531
10:00+17se3667100 0.2 1022630
13:00+19sse235915 0.0 1022921
16:00+21se61055100 0.3 10221516
19:00+15se61577100 0.3 10241049
22:00+14ene3789100 1.4 1024368
12 may, wed
wed1201:00+14ne3995100 4.3 1024512
04:00+14ne51291100 5.1 1023410
07:00+16ene71581100 0.2 1022438
10:00+19e8146380 0.2 1022731
13:00+21e8115298 0.0 1022929
16:00+21e7115775 0.0 1022705
19:00+21e6115475 0.0 1022352
22:00+18e486376 0.2 1022174